www.pogodaiklimat.ru

Архив погоды в Ухте (Коми, Россия)

Время
(UTC), дата
12 16.07
15 16.07
18 16.07
21 16.07
00 17.07
03 17.07
06 17.07
09 17.07
12 17.07
15 17.07
18 17.07
21 17.07
00 18.07
03 18.07
06 18.07
09 18.07
12 18.07
15 18.07
18 18.07
21 18.07
00 19.07
03 19.07
06 19.07
09 19.07
12 19.07
15 19.07
18 19.07
21 19.07
00 20.07
03 20.07
06 20.07
09 20.07
12 20.07
15 20.07
18 20.07
21 20.07
00 21.07
03 21.07
06 21.07
09 21.07
12 21.07
15 21.07
18 21.07
21 21.07
00 22.07
03 22.07
06 22.07
09 22.07
12 22.07
15 22.07
18 22.07
21 22.07
00 23.07
03 23.07
06 23.07
09 23.07
Ветер
(напр.,м/с)
Видим. Явления Облачность Т
(С)
Тd
(С)
f
(%)
Тe
(С)
Тes
(С)
Комфортность P
(гПа)
Po
(гПа)
Тmin
(С)
Tmax
(С)
R
(мм)
R24
(мм)
S
(см)
ЮВ 2 12 км 3/3 1000 м
[Cu hum]
+28.1 +10.8 34 +29 +34 жарко 1017.5 1002.3
Ю 2 12 км 3/1 1000 м
[Cu hum Ci fib]
+26.4 +11.7 40 +28 +29 жарко 1016.6 1001.4 +28.5
Ю 1 12 км 3/1 1000 м
[Cu hum Ci fib]
+19.0 +14.1 73 +21 +21 комфорт 1016.7 1001.1
Ю 2 10 км 3/0
[Ac trans]
+16.8 +12.9 78 +17 +17 тепло 1016.4 1000.7
З 1 12 км 6/0
[Ac trans Ci fib]
+14.9 +13.1 89 +15 +15 тепло 1016.1 1000.3
штиль 0 12 км 9/0
[Ac trans Ci sp]
+20.7 +15.2 71 +23 +26 комфорт 1015.4 999.9 +13.5
ЮЗ 2 12 км 10/0
[Ac trans Ci sp]
+25.0 +15.9 57 +28 +35 жарко 1014.3 999.0
Ю 3 12 км 10/4 1000 м
[Cb calv Ac trans Ci fib]
+26.2 +14.8 49 +29 +32 жарко 1013.1 997.9
Ю 1 12 км {ливн. дождь} 10/3 1000 м
[Cb calv Ac trans Ci fib]
+25.2 +15.6 55 +28 +31 жарко 1012.0 996.8
штиль 0 12 км {гроза, ливн. дождь} 10/1 1000 м
[Cb cap Ac trans Ci fib]
+23.6 +14.9 58 +26 +27 жарко 1011.8 996.5 +26.2 0.5
З 1 12 км {гроза, ливн. дождь} 8/0
[Ac trans]
+18.3 +16.2 88 +20 +20 тепло 1012.3 996.7
Ю 1 10 км 3/0
[Ac trans]
+14.6 +14.6 100 +15 +15 тепло 1012.0 996.2
штиль 0 12 км 8/0
[Ci fib]
+14.7 +14.7 100 +14 +14 тепло 1012.4 996.6
штиль 0 12 км 6/0
[Ci fib]
+18.5 +17.0 91 +19 +23 тепло 1012.3 996.7 +13.8
С 2 12 км 8/0
[Cc]
+23.9 +15.7 60 +27 +35 жарко 1011.9 996.6
С 2 12 км 8/4 1000 м
[Cu med, cong Ci fib]
+26.7 +13.5 44 +29 +35 жарко 1010.9 995.8
З 2 12 км 8/4 1000 м
[Cb calv Ci fib]
+26.9 +15.3 49 +30 +33 душно 1009.9 994.8
С 2 12 км {гроза} 8/3 1000 м
[Cb calv Ci fib]
+24.4 +15.8 59 +28 +28 душно 1010.1 994.9 +28.4
С 2 12 км {гроза} 6/1 1500 м
[Sc diur, vesp Ac trans]
+19.8 +14.9 73 +22 +22 комфорт 1010.7 995.2
штиль 0 10 км 8/0
[Ac trans]
+16.4 +16.4 100 +16 +16 тепло 1010.6 995.0
С 3 8000 м слаб. ливневой дождь 10/8 210 м
[Cb cap Ac cuf]
+16.9 +16.9 100 +17 +17 тепло 1010.2 994.6
С 2 9000 м слаб. ливневой дождь 10/10 120 м
[Cb cap]
+16.9 +16.9 100 +17 +17 тепло 1010.6 995.0 +16.4 2
С 3 12 км {ливн. дождь} 9/6 420 м
[Cb cap Ac trans]
+18.7 +16.1 85 +20 +22 тепло 1010.2 994.7
С 4 12 км {ливн. дождь} 9/5 630 м
[Cb cap Ac trans]
+18.7 +15.7 83 +20 +22 тепло 1010.1 994.6
С 4 12 км {ливн. дождь} 8/4 1000 м
[Cb cap Ac trans]
+19.7 +15.1 75 +22 +23 комфорт 1010.0 994.6
С 2 12 км 4/3 1000 м
[Cb cap Ac trans]
+18.3 +14.6 79 +19 +20 тепло 1009.7 994.2 +20.4 0.0
С 1 12 км 3/0
[Ac trans]
+15.3 +14.5 95 +16 +16 тепло 1010.0 994.3
С 3 10 км 1/0
[Ac trans]
+13.0 +10.4 84 +12 +12 тепло 1010.1 994.3
С 3 12 км ясно +10.3 +8.4 88 +8 +8 прохладно 1011.3 995.3
С 4 12 км ясно +12.3 +7.5 72 +10 +13 холодно 1011.8 995.8 +10.1
С 5 12 км ясно +15.3 +4.5 48 +14 +19 прохладно 1011.8 996.0
СВ 5 12 км ясно +18.0 +5.3 43 +18 +24 по сезону 1012.2 996.5
С 4 {11} 12 км 3/0
[Ac trans]
+18.3 +6.8 47 +18 +22 прохладно 1012.6 997.0
С 5 12 км 8/3 1000 м
[Sc Ac trans]
+15.5 +7.8 60 +14 +15 холодно 1013.8 998.0 +18.6
СВ 4 12 км 9/9 600 м
[Sc]
+12.4 +7.7 73 +11 +11 холодно 1015.2 999.2
С 2 10 км 10/10 840 м
[Sc]
+11.0 +8.1 82 +10 +10 прохладно 1015.4 999.4
С 2 12 км 3/3 600 м
[Sc]
+9.6 +7.9 89 +8 +8 прохладно 1016.2 1000.0
С 3 12 км 3/3 1000 м
[Sc]
+11.7 +8.2 79 +10 +12 прохладно 1016.9 1000.9 +9.5
С 3 12 км 4/4 1000 м
[Cu hum]
+16.6 +8.4 58 +16 +21 по сезону 1016.7 1000.9
С 4 12 км 3/3 1000 м
[Cu hum]
+19.4 +7.0 44 +20 +25 тепло 1016.1 1000.5
В 4 12 км 4/4 1000 м
[Sc diur, vesp]
+20.6 +6.4 40 +22 +24 комфорт 1015.8 1000.3
СВ 4 12 км 1/1 1000 м
[Sc diur, vesp]
+19.3 +2.1 32 +20 +20 тепло 1015.6 1000.0 +20.9
С 1 12 км 3/0
[Ci fib]
+12.6 +4.3 57 +13 +13 прохладно 1016.5 1000.5
штиль 0 10 км 1/0
[Ac trans]
+8.2 +5.4 82 +7 +7 холодно 1017.2 1000.9
С 1 12 км 3/0
[Ac trans]
+7.7 +5.2 84 +7 +7 прохладно 1017.6 1001.3
С 2 12 км 1/0
[Ci fib]
+13.2 +6.7 65 +13 +16 по сезону 1017.4 1001.4 +7.2
С 2 12 км 3/0
[Ci fib]
+19.0 +6.3 43 +20 +29 тепло 1017.1 1001.5
С 3 12 км 8/0
[Ci]
+21.4 +3.8 31 +22 +30 комфорт 1016.3 1000.7
С 2 12 км 6/0
[Ci fib]
+22.4 +5.3 33 +23 +29 комфорт 1015.6 1000.1
СВ 3 12 км 9/0
[Ac trans Ci sp]
+21.5 +5.4 35 +22 +23 комфорт 1015.2 999.7 +22.7
СВ 1 12 км 8/0
[Ac lent]
+16.9 +6.7 51 +18 +18 тепло 1015.8 1000.1
штиль 0 10 км 10/0
[Ac und]
+14.0 +6.6 61 +14 +14 по сезону 1015.9 1000.0
штиль 0 12 км 10/0
[Ac und]
+12.8 +8.3 74 +12 +12 по сезону 1015.3 999.4
С 2 10 км слаб. ливневой дождь 10/6 1200 м
[Cb cap Ac As]
+13.2 +10.0 81 +12 +13 по сезону 1015.0 999.1 +12.7 0.0
СЗ 2 12 км в посл. час ливневой дождь 10/6 750 м
[Cb cap Ac trans]
+14.2 +13.3 94 +14 +15 прохладно 1014.7 998.9
С 4 12 км 10/6 540 м
[Cb cap Ac trans]
+15.8 +11.9 78 +15 +16 прохладно 1014.3 998.6
Местоположение метеостанции Ухта (Коми, Россия): широта 63.55 долгота 53.82 высота над уровнем моря 137 м.
В архиве по умолчанию представлена погода в Ухте за последнюю неделю. Архивные данные за месяц целиком и за предыдущие месяцы, начиная с января 2011 года, Вы можете получить, выбрав интересующий диапазон дат из раскрывающегося списка и нажав кнопку "Найти!".
*Определитесь, кто Вы:
Внимание! Время в таблицах - всемирное. Для получения местного времени необходимо прибавить поправку, которая равна 3 ч.
Некоторые строки с данными для отдельных станций могут быть выделены курсивом. Это означает, что фактические данные отсутствуют по различным причинам, а приведенные значения являются расчетными модельными данными для данного пункта наблюдений.
Смотрите также архив погоды в соседних городах и на ближайших метеорологических станциях:
Партнеры нашего сайта:
Книга о компании
книга о компании
redkollegia.ru

     
Пояснения к столбцам:
  • Ветер - указаны скорость ветра в м/с - средняя за 10 мин, порывы в срок и между сроками (в фигурных скобках) и направление, откуда дует ветер: С - северный,
  • СВ - северо-восточный, В - восточный, ЮВ - юго-восточный, Ю - южный, ЮЗ - юго-западный, З - западный, СЗ - северо-западный.
  • Видимость - горизонтальная дальность видимости в метрах или километрах. При видимости от 1 до 10 км при отсутствии осадков обычно наблюдается дымка, при ухудшении видимости до 1 км и менее - туман. В сухую погоду видимость может ухудшаться дымом, пылью или мглою.
  • Явления - указаны атмосферные явления, наблюдавшиеся в срок или в последний час перед сроком; фигурными скобками обозначены явления, наблюдавшиеся между сроками (за 1-3 часа до срока); квадратными скобками обозначены град или гололедные отложения с указанием их диаметра в мм.
  • Облачность - указаны через наклонную черту общая и нижняя облачность в баллах и высота нижней границы облаков в метрах; квадратными скобками обозначены формы облаков: Ci - перистые, Cs - перисто-слоистые, Cc - перисто-кучевые, Ac - высококучевые, As - высокослоистые, Sc - слоисто-кучевые, Ns - слоисто-дождевые, Cu - кучевые, Cb - кучево-дождевые. Подробнее классификацию облаков см. в Атласе облаков (PDF).
  • T - Температура воздуха - температура, измеренная на высоте 2 м над землей.
  • Td - Температура точки росы - температура, при понижении до которой содержащийся в воздухе водяной пар достигнет насыщения.
  • f - Относительная влажность воздуха - влажноcть воздуха, измеренная на высоте 2 м над землей.
  • Te - Эффективная температура - температура, которую ощущает одетый по сезону человек в тени. Характеристика душности погоды. При расчете учитывается влияние влажности воздуха и скорости ветра на теплоощущения человека.
  • Tes - Эффективная температура на солнце - температура, которую ощущает человек, с поправкой на солнечный нагрев. Характеристика знойности погоды. Зависит от высоты солнца над горизонтом, облачности и скорости ветра. Ночью, в пасмурную погоду, а также при ветре 12 м/с и более поправка равна нулю.
  • P - Атмосферное давление - приведенное к уровню моря атмосферное давление.
  • Po - Атмосферное давление - измеренное на уровне метеостанции атмосферное давление.
  • Tmin - Минимальная температура - минимум температуры воздуха на высоте 2 м над землей.
  • Tmax - Максимальная температура - максимум температуры воздуха на высоте 2 м над землей.
  • R - Количество осадков - Количество выпавших осадков за период времени, мм. При наведении курсора мыши на число - период времени, за который выпало указанное количество осадков.
  • R24 - Количество осадков - Количество выпавших осадков за 24 часа, мм.
  • S - Снежный покров - Высота снежного покрова, см. При наведении курсора мыши на число - состояние снежного покрова и степень покрытия местности в баллах.